North Platte, NE

9:35 PM CDT on May 29, 2017 (GMT -0500)
North Platte Regional-Bird

Weather History for KLBF - January, 2012

Change the Weather History Date:

Friday, January 13, 2012

  Actual Average Record
Temperature  
Mean Temperature 29 °F 25 °F  
Max Temperature 44 °F 39 °F 69 °F (1996)
Min Temperature 13 °F 11 °F -26 °F (1875)
Degree Days  
Heating Degree Days 36 40  
Month to date heating degree days 439 525  
Since 1 July heating degree days 3005 3305  
Cooling Degree Days 0 0  
Month to date cooling degree days 0 0  
Year to date cooling degree days 0 0  
Moisture  
Dew Point 16 °F    
Average Humidity 59    
Maximum Humidity 88    
Minimum Humidity 30    
Precipitation  
Precipitation 0.00 in 0.01 in 0.17 in (2001)
Month to date precipitation 0.07 0.15  
Year to date precipitation 0.07 0.15  
Snow  
Snow 0.00 in 0.20 in 1.00 in (1889)
Month to date snowfall 1.4 2.1  
Since 1 July snowfall 5.9 12.9  
Snow Depth 0.00 in    
Sea Level Pressure  
Sea Level Pressure 30.04 in    
Wind  
Wind Speed 8 mph (WNW)    
Max Wind Speed 21 mph    
Max Gust Speed 26 mph    
Visibility 10 miles    
Events      
T = Trace of Precipitation, MM = Missing Value Source: NWS Daily Summary

Daily Weather History Graph

Daily Weather History Graph

Search for Another Location

Airport or City:

Trip Planner

Search our weather history database for the weather conditions in past years. The results will help you decide how hot, cold, wet, or windy it might be!

Date:

Astronomy

Jan. 13, 2012 Rise Set
Actual Time 8:06 AM CST 5:36 PM CST
Civil Twilight 7:36 AM CST 6:06 PM CST
Nautical Twilight 7:02 AM CST 6:40 PM CST
Astronomical Twilight 6:29 AM CST 7:13 PM CST
Moon 10:54 PM CST (1/13) 10:18 AM CST (1/13)
Length of Visible Light 10h 30m
Length of Day
9h 29m
Waning Gibbous, 78% of the Moon is Illuminated
Jan 13
Waning Gibbous
Jan 16
Last Quarter
Jan 23
New
Jan 30
First Quarter
Feb 7
Full

Hourly Weather History & Observations

Time (CST) Temp. Windchill Dew Point Humidity Pressure Visibility Wind Dir Wind Speed Gust Speed Precip Events Conditions
12:53 AM 17.1 °F 10.0 °F 9.0 °F 71% 30.12 in 10.0 mi NW 4.6 mph - N/A   Partly Cloudy
1:53 AM 19.9 °F 12.1 °F 12.9 °F 74% 30.10 in 10.0 mi NNW 5.8 mph - N/A   Overcast
2:53 AM 21.0 °F 14.6 °F 15.1 °F 78% 30.09 in 10.0 mi WNW 4.6 mph - N/A   Overcast
3:53 AM 24.1 °F 18.2 °F 17.1 °F 75% 30.07 in 10.0 mi WNW 4.6 mph - N/A   Overcast
4:53 AM 23.0 °F 17.0 °F 18.0 °F 81% 30.07 in 10.0 mi NW 4.6 mph - N/A   Overcast
5:53 AM 23.0 °F - 18.0 °F 81% 30.08 in 10.0 mi Calm Calm - N/A   Overcast
6:53 AM 19.0 °F 12.3 °F 15.1 °F 85% 30.12 in 10.0 mi NW 4.6 mph - N/A   Scattered Clouds
7:53 AM 15.1 °F 7.7 °F 12.0 °F 88% 30.13 in 10.0 mi NNW 4.6 mph - N/A   Clear
8:53 AM 17.1 °F 8.7 °F 14.0 °F 88% 30.12 in 10.0 mi WNW 5.8 mph - N/A   Clear
9:53 AM 26.1 °F 17.6 °F 16.0 °F 66% 30.12 in 10.0 mi West 8.1 mph - N/A   Clear
10:53 AM 30.0 °F 23.2 °F 15.1 °F 54% 30.11 in 10.0 mi WSW 6.9 mph - N/A   Clear
11:53 AM 34.0 °F 28.0 °F 16.0 °F 48% 30.07 in 10.0 mi West 6.9 mph - N/A   Clear
12:53 PM 39.0 °F 31.4 °F 16.0 °F 39% 30.04 in 10.0 mi West 12.7 mph - N/A   Clear
1:53 PM 41.0 °F 32.5 °F 15.1 °F 35% 30.01 in 10.0 mi West 17.3 mph - N/A   Partly Cloudy
2:53 PM 43.0 °F 37.2 °F 14.0 °F 31% 29.98 in 10.0 mi West 10.4 mph - N/A   Scattered Clouds
3:53 PM 44.1 °F 36.5 °F 16.0 °F 32% 29.96 in 10.0 mi West 17.3 mph - N/A   Clear
4:53 PM 43.0 °F 36.4 °F 21.9 °F 43% 29.96 in 10.0 mi WNW 12.7 mph - N/A   Clear
5:53 PM 37.9 °F 31.5 °F 21.0 °F 51% 29.95 in 10.0 mi WSW 9.2 mph - N/A   Clear
6:53 PM 36.0 °F 28.5 °F 17.1 °F 46% 29.96 in 10.0 mi West 10.4 mph - N/A   Clear
7:53 PM 30.0 °F 22.4 °F 16.0 °F 56% 29.99 in 10.0 mi NW 8.1 mph - N/A   Clear
8:53 PM 30.2 °F 22.6 °F 17.6 °F 60% 29.90 in 10.0 mi NW 8.1 mph - N/A   Clear
9:53 PM 28.0 °F 19.3 °F 15.1 °F 58% 30.01 in 10.0 mi NW 9.2 mph - N/A   Clear
10:53 PM 25.0 °F 17.1 °F 14.0 °F 63% 30.04 in 10.0 mi NW 6.9 mph - N/A   Clear
11:53 PM 32.0 °F 21.2 °F 18.0 °F 56% 30.04 in 10.0 mi NW 16.1 mph - N/A   Clear